Regional Weather Roundup
Issued by NWS

Home | Current Version | Previous Version | Graphics & Text | Print | Product List | Glossary On
Versions: 1 2 3 4 5 6 7 8 9 10 11 12 13 14 15 16 17 18 19 20 21 22 23 24 25 26 27 28 29 30 31 32 33 34 35 36 37 38 39 40 41 42 43 44 45 46 47 48 49 50
000
ASUS45 KSLC 210110
RWRUT

UTAH REGIONAL WEATHER ROUNDUP
NATIONAL WEATHER SERVICE SALT LAKE CITY UT
700 PM MDT WED AUG 20 2014

UTZ001>011-023>025-210200-

NORTHERN UTAH

CITY           SKY/WX    TMP DP  RH WIND       PRES   REMARKS
HILL AFB       PTSUNNY   79  48  34 S14       29.94S
LOGAN          SUNNY     80  47  31 S9        29.91S
OGDEN          MOSUNNY   80  45  28 S14       29.91S
PROVO AIRPORT  PTSUNNY   79  52  38 E3        29.96S
SALT LAKE CITY PTSUNNY   78  45  30 S8        29.90S
VERNAL         PTSUNNY   70  52  52 NE7       30.04R
WENDOVER       PTSUNNY   77  48  36 S21       29.92R
HEBER CITY     PTSUNNY   72  46  40 SW7       30.03R
WEST JORDAN    PTSUNNY   73  61  64 S14       29.96R

$$

UTZ012>022-026-027-210200-

SOUTHERN UTAH

CITY           SKY/WX    TMP DP  RH WIND       PRES   REMARKS
BRYCE CANYON   PTSUNNY   64  45  49 NW7       30.23S
CEDAR CITY     SUNNY     75  40  28 SW14G23   30.08S
MILFORD        PTSUNNY   69  45  41 N9G20     30.04R
MOAB/CYNLANDS  CLOUDY    70  50  49 SW29G36   29.99R
PRICE          LGT RAIN  71  46  40 NW12G20   30.07R
ST GEORGE      MOCLDY    84  55  37 SW5       29.93F
KANAB            N/A     70  48  46 W9        30.12

$$

REGIONAL REPORTS     COLORADO/ARIZONA

CITY           SKY/WX    TMP DP  RH WIND       PRES   REMARKS
CRAIG, CO      MOSUNNY   71  47  42 SW7       30.06S
GRAND JUNCTION SUNNY     79  47  32 W10       29.96S
RIFLE          SUNNY     79  46  31 W15       30.00R
MONTROSE       MOSUNNY   76  40  27 S6        30.06S
CORTEZ         SUNNY     79  37  22 W15       30.09S
PAGE, AZ       PTSUNNY   79  49  34 W6        30.01F
GRAND CANYON   LGT RAIN  59  50  72 W10       30.20R
KINGMAN        SUNNY     86  47  25 SW12      29.96F
FLAGSTAFF      MOSUNNY   67  40  37 SW8       30.23S

$$

REGIONAL REPORTS    NEVADA/IDAHO/WYOMING

CITY           SKY/WX    TMP DP  RH WIND       PRES   REMARKS
LAS VEGAS, NV  TSTM      87  51  28 SE13      29.82S
ELY            MOSUNNY   73  40  30 S13       30.07R
ELKO           CLOUDY    77  40  26 S7        29.93F
POCATELLO, ID  PTSUNNY   63  55  75 S16       29.94R
BURLEY         CLOUDY    67  54  63 S6        29.90R
EVANSTON, WY   MOSUNNY   70  41  34 SW17      30.10R
ROCK SPRINGS   CLOUDY    64  44  48 N3        30.09F

$$


USA.gov is the U.S. government's official web portal to all federal, state and local government web resources and services.